Regional Weather Roundup
Issued by NWS

Home | Current Version | Previous Version | Graphics & Text | Print | Product List | Glossary On
Versions: 1 2 3 4 5 6 7 8 9 10 11 12 13 14 15 16 17 18 19 20 21 22 23 24 25 26 27 28 29 30 31 32 33 34 35 36 37 38 39 40 41 42 43 44 45 46 47 48 49
473
ASUS45 KBOU 061607
RWRCO

WEATHER ROUNDUP FOR COLORADO
NATIONAL WEATHER SERVICE DENVER/BOULDER CO
900 AM MST SAT FEB 06 2016

NOTE: "FAIR" INDICATES FEW OR NO CLOUDS BELOW 12000 FEET WITH NO
SIGNIFICANT WEATHER AND/OR OBSTRUCTIONS TO VISIBILITY.

COZ001>005-013-030-031-061700-
...NORTHWEST COLORADO...

CITY           SKY/WX    TMP DP  RH WIND       PRES   REMARKS
CRAIG          CLOUDY    -5  -7  91 CALM      30.50R
HAYDEN           N/A     10   3  72 SE10      30.48R VSB 3/4 WCI  -3
MEEKER         CLOUDY     2  -4  76 E3        30.50R
MOUNT WERNER   NOT AVBL
STEAMBOAT SPGS CLOUDY     4   0  86 CALM      30.48R
WALDEN         CLOUDY    12   3  67 SE8       30.39S WCI   1
$$

COZ006>008-011-061700-
...WEST CENTRAL VALLEYS...

CITY           SKY/WX    TMP DP  RH WIND       PRES   REMARKS
GRAND JUNCTION CLOUDY     6   6 100 CALM      30.60S
MONTROSE       CLOUDY    11   3  70 SE7       30.59S WCI   0
EAGLE          SUNNY     -2  -6  84 CALM      30.61F
RIFLE          CLOUDY     6   2  83 CALM      30.58F
DELTA          CLOUDY    16   8  70 CALM      30.61S
NUCLA          CLOUDY    12   5  73 CALM      30.58S
$$

COZ017>023-064>068-061700-
...SOUTHWEST COLORADO...

CITY           SKY/WX    TMP DP  RH WIND       PRES   REMARKS
DURANGO        CLOUDY     9   6  88 CALM      30.48R
CORTEZ         CLOUDY    15   6  67 E9        30.52R WCI   3
PAGOSA SPRINGS CLOUDY   N/A N/A N/A NE5       30.45R
TELLURIDE      CLOUDY    20  10  63 SE7       30.47R WCI  11
WOLF CREEK PAS CLOUDY    21   5  49 CALM      30.44R
$$

COZ009-010-012-014-032>034-037-058>063-061700-
...CENTRAL COLORADO...

CITY           SKY/WX    TMP DP  RH WIND       PRES   REMARKS
ASPEN          CLOUDY    11   4  73 CALM      30.46F
BUENA VISTA    CLOUDY    13   2  62 SE6       30.37F WCI   4
COPPER MTN     CLOUDY    14   9  79 W14       30.38S WCI  -1
BERTHOUD PASS  FAIR       7  -4  61 NW44G51   30.25S WCI -20
COTTONWOOD PAS CLOUDY    28  10  47 CALM      30.33S
GUNNISON       CLOUDY   -17 -18  91 CALM      30.61R
KREMMLING      CLOUDY   N/A N/A N/A CALM      30.54S
LEADVILLE      CLOUDY    14   4  64 NE6       30.38F WCI   5
MONARCH PASS     N/A      9   3  78 MISG      30.42S
SALIDA         NOT AVBL
SUNLIGHT       CLOUDY    19  14  79 CALM        N/A
WILKERSON PASS CLOUDY    21   9  58 NW16G24   30.31R WCI   7
$$

COZ069>075-061700-
...SAN LUIS VALLEY/SANGRE DE CRISTO MOUNTAINS...

CITY           SKY/WX    TMP DP  RH WIND       PRES   REMARKS
ALAMOSA        CLOUDY     5  -2  72 CALM      30.45S
LA VETA PASS   CLOUDY    12   3  67 MISG      30.28F
SAGUACHE       CLOUDY    12   1  62 E5        30.44S WCI   4
$$

COZ035-036-038>040-061700-
...NORTHERN COLORADO FRONT RANGE...

CITY           SKY/WX    TMP DP  RH WIND       PRES   REMARKS
DENVER INTL AP CLOUDY    30  13  49 S17       30.18R WCI  18
DMNS CITY PARK   N/A     36  10  34 S8        30.19F
AURORA         MOSUNNY   32  12  44 SW12      30.20S WCI  23
FRONT RANGE AP MOSUNNY   30  12  47 S14G20    30.20R WCI  20
ERIE MUNI ARPT CLOUDY    21  15  78 CALM      30.17F
BOULDER MUN AP CLOUDY    27  10  50 N3        30.16F
CENTENNIAL     CLOUDY    33  13  43 SW10      30.20S WCI  25
BROOMFIELD     MOSUNNY   28   9  43 CALM      30.19S
FORT COLLINS   CLOUDY    12   7  79 SW3       30.18F
LONGMONT       CLOUDY    22   8  54 CALM      30.20S
$$

COZ041-046-047-076>085-087-088-061700-
...PIKES PEAK/PALMER DIVIDE AND SOUTHERN FOOTHILLS...

CITY           SKY/WX    TMP DP  RH WIND       PRES   REMARKS
COLO. SPRINGS  CLOUDY    26   7  44 N7        30.24R WCI  18
A. F. ACADEMY  CLOUDY    22   8  52 NE5       30.23R WCI  16
SCHRIEVER AFB  FAIR      27   4  37 NW1       30.24R
ELLICOTT       NOT AVBL
FALCON         CLOUDY    32   5  32 W7        30.24S WCI  25
FORT CARSON    MOSUNNY   22   9  57 N8        30.22R WCI  13
LIMON          CLOUDY    19   3  49 N5        30.23S WCI  12
MONUMENT HILL  CLOUDY    28   9  43 SW12      30.24R WCI  18
TRINIDAD       CLOUDY    29  11  47 NW9       30.27S WCI  20
$$

COZ042>045-048>051-090-091-061700-
...NORTHEAST COLORADO...

CITY           SKY/WX    TMP DP  RH WIND       PRES   REMARKS
GREELEY ARPT   CLOUDY     9   3  78 CALM      30.22S
AKRON          CLOUDY    21   7  54 W16       30.19S WCI   7
BURLINGTON     CLOUDY    24  11  57 SW14      30.23S WCI  12
WRAY           CLOUDY    22  10  59 SW8       30.22S WCI  12
STERLING       CLOUDY    14   7  73 SW13      30.20F WCI   0
HOLYOKE        CLOUDY    28  16  59 W9        30.19S WCI  20
FORT MORGAN    CLOUDY    10   4  75 W15       30.21S WCI  -7
$$

COZ086-089-092>099-061700-
...SOUTHEAST COLORADO...

CITY           SKY/WX    TMP DP  RH WIND       PRES   REMARKS
PUEBLO         CLOUDY    21  14  74 CALM      30.26F
LA JUNTA       CLOUDY    25  15  66 W7        30.30R WCI  17
LAMAR          CLOUDY    24  15  68 W12       30.30S WCI  13
SPRINGFIELD      N/A     34  19  54 SW9       30.29S WCI  27
$$




USA.gov is the U.S. government's official web portal to all federal, state and local government web resources and services.